| time (UTC) | temp F | wind direction | speed MPH | gust MPH | rain 1hr in | rain 24hr in | rain mn in | humidity % | barometer mb |
| 20260505022028 | 61 | 217 | 6.0 | 11.0 | 0.00 | 0.00 | 0.00 | 74 | 1011.6 |
| 20260505021530 | 61 | 231 | 5.0 | 11.0 | 0.00 | 0.00 | 0.00 | 74 | 1011.7 |
| 20260505021027 | 61 | 200 | 6.0 | 12.0 | 0.00 | 0.00 | 0.00 | 74 | 1011.7 |
| 20260505020528 | 61 | 217 | 7.0 | 12.0 | 0.00 | 0.00 | 0.00 | 73 | 1011.7 |
| 20260505020028 | 60 | 217 | 7.0 | 11.0 | 0.00 | 0.00 | 0.00 | 74 | 1011.7 |
| 20260505015528 | 60 | 209 | 5.0 | 10.0 | 0.00 | 0.00 | 0.00 | 73 | 1011.6 |
| 20260505015028 | 61 | 224 | 5.0 | 11.0 | 0.00 | 0.00 | 0.00 | 72 | 1011.6 |
| 20260505014532 | 61 | 215 | 5.0 | 11.0 | 0.00 | 0.00 | 0.00 | 71 | 1011.7 |
| 20260505014026 | 62 | 236 | 5.0 | 12.0 | 0.00 | 0.00 | 0.00 | 69 | 1011.6 |
| 20260505013527 | 62 | 200 | 7.0 | 12.0 | 0.00 | 0.00 | 0.00 | 68 | 1011.5 |
| 20260505013029 | 62 | 213 | 7.0 | 12.0 | 0.00 | 0.00 | 0.00 | 67 | 1011.5 |
| 20260505012525 | 62 | 252 | 6.0 | 13.0 | 0.00 | 0.00 | 0.00 | 67 | 1011.5 |
| 20260505012025 | 62 | 218 | 7.0 | 16.0 | 0.00 | 0.00 | 0.00 | 66 | 1011.4 |
| 20260505011526 | 62 | 228 | 10.0 | 16.0 | 0.00 | 0.00 | 0.00 | 66 | 1011.4 |
| 20260505011024 | 62 | 221 | 7.0 | 12.0 | 0.00 | 0.00 | 0.00 | 68 | 1011.4 |
| 20260505010524 | 61 | 206 | 7.0 | 10.0 | 0.00 | 0.00 | 0.00 | 70 | 1011.4 |
| 20260505010023 | 61 | 223 | 5.0 | 11.0 | 0.00 | 0.00 | 0.00 | 70 | 1011.4 |
| 20260505005523 | 61 | 227 | 4.0 | 8.0 | 0.00 | 0.00 | 0.00 | 70 | 1011.3 |
| 20260505005024 | 61 | 212 | 4.0 | 7.0 | 0.00 | 0.00 | 0.00 | 70 | 1011.4 |
| 20260505004524 | 61 | 215 | 3.0 | 6.0 | 0.00 | 0.00 | 0.00 | 69 | 1011.4 |
| 20260505004022 | 61 | 234 | 4.0 | 10.0 | 0.00 | 0.00 | 0.00 | 69 | 1011.4 |
| 20260505003525 | 62 | 229 | 4.0 | 10.0 | 0.00 | 0.00 | 0.00 | 68 | 1011.4 |
| 20260505003023 | 62 | 207 | 5.0 | 9.0 | 0.00 | 0.00 | 0.00 | 68 | 1011.3 |
| 20260505002524 | 62 | 204 | 5.0 | 9.0 | 0.00 | 0.00 | 0.00 | 67 | 1011.3 |
| 20260505002022 | 62 | 222 | 4.0 | 11.0 | 0.00 | 0.00 | 0.00 | 66 | 1011.2 |
| 20260505001522 | 63 | 186 | 4.0 | 11.0 | 0.00 | 0.00 | 0.00 | 64 | 1011.2 |
| 20260505001022 | 63 | 205 | 6.0 | 14.0 | 0.00 | 0.00 | 0.00 | 64 | 1011.1 |
| 20260505000521 | 63 | 235 | 6.0 | 14.0 | 0.00 | 0.00 | 0.00 | 63 | 1011.1 |
| 20260505000030 | 63 | 217 | 6.0 | 12.0 | 0.00 | 0.00 | 0.00 | 63 | 1011.0 |
| 20260504235521 | 64 | 216 | 7.0 | 14.0 | 0.00 | 0.00 | 0.00 | 62 | 1011.0 |
| 20260504235021 | 64 | 221 | 7.0 | 14.0 | 0.00 | 0.00 | 0.00 | 62 | 1011.0 |
| 20260504234521 | 64 | 206 | 7.0 | 14.0 | 0.00 | 0.00 | 0.00 | 61 | 1011.0 |
| 20260504234020 | 64 | 237 | 8.0 | 14.0 | 0.00 | 0.00 | 0.00 | 61 | 1010.8 |
| 20260504233520 | 64 | 229 | 7.0 | 14.0 | 0.00 | 0.00 | 0.00 | 60 | 1010.8 |
| 20260504233023 | 65 | 175 | 7.0 | 14.0 | 0.00 | 0.00 | 0.00 | 59 | 1010.8 |
| 20260504232522 | 65 | 219 | 6.0 | 11.0 | 0.00 | 0.00 | 0.00 | 59 | 1010.8 |
| 20260504232019 | 65 | 237 | 5.0 | 11.0 | 0.00 | 0.00 | 0.00 | 59 | 1010.7 |
| 20260504231527 | 65 | 234 | 4.0 | 11.0 | 0.00 | 0.00 | 0.00 | 59 | 1010.7 |
| 20260504231022 | 66 | 208 | 4.0 | 15.0 | 0.00 | 0.00 | 0.00 | 58 | 1010.7 |
| 20260504230521 | 66 | 204 | 7.0 | 11.0 | 0.00 | 0.00 | 0.00 | 57 | 1010.7 |
| 20260504230019 | 66 | 219 | 7.0 | 12.0 | 0.00 | 0.00 | 0.00 | 56 | 1010.8 |
| 20260504225517 | 66 | 238 | 6.0 | 12.0 | 0.00 | 0.00 | 0.00 | 57 | 1010.8 |
| 20260504225017 | 67 | 209 | 5.0 | 10.0 | 0.00 | 0.00 | 0.00 | 57 | 1010.8 |
| 20260504224522 | 67 | 202 | 4.0 | 10.0 | 0.00 | 0.00 | 0.00 | 57 | 1010.7 |
| 20260504224021 | 67 | 184 | 6.0 | 10.0 | 0.00 | 0.00 | 0.00 | 56 | 1010.7 |
| 20260504223521 | 68 | 191 | 4.0 | 9.0 | 0.00 | 0.00 | 0.00 | 55 | 1010.7 |
| 20260504223017 | 68 | 191 | 4.0 | 9.0 | 0.00 | 0.00 | 0.00 | 54 | 1010.6 |
| 20260504222516 | 69 | 212 | 4.0 | 7.0 | 0.00 | 0.00 | 0.00 | 55 | 1010.7 |
| 20260504222016 | 69 | 217 | 3.0 | 8.0 | 0.00 | 0.00 | 0.00 | 54 | 1010.6 |
| 20260504221516 | 69 | 213 | 2.0 | 11.0 | 0.00 | 0.00 | 0.00 | 54 | 1010.6 |
| 20260504221016 | 69 | 219 | 2.0 | 11.0 | 0.00 | 0.00 | 0.00 | 53 | 1010.6 |
| 20260504220515 | 69 | 229 | 1.0 | 8.0 | 0.00 | 0.00 | 0.00 | 53 | 1010.5 |
| 20260504220019 | 69 | 225 | 4.0 | 7.0 | 0.00 | 0.00 | 0.00 | 53 | 1010.6 |
| 20260504215516 | 70 | 219 | 3.0 | 6.0 | 0.00 | 0.00 | 0.00 | 54 | 1010.6 |
| 20260504215014 | 70 | 196 | 2.0 | 9.0 | 0.00 | 0.00 | 0.00 | 54 | 1010.6 |
| 20260504214515 | 70 | 202 | 4.0 | 12.0 | 0.00 | 0.00 | 0.00 | 53 | 1010.6 |
| 20260504214014 | 69 | 229 | 5.0 | 10.0 | 0.00 | 0.00 | 0.00 | 50 | 1010.5 |
| 20260504213514 | 69 | 220 | 5.0 | 10.0 | 0.00 | 0.00 | 0.00 | 52 | 1010.6 |
| 20260504213014 | 70 | 183 | 3.0 | 14.0 | 0.00 | 0.00 | 0.00 | 52 | 1010.6 |
| 20260504212514 | 70 | 238 | 5.0 | 14.0 | 0.00 | 0.00 | 0.00 | 51 | 1010.6 |
| 20260504212013 | 69 | 217 | 5.0 | 16.0 | 0.00 | 0.00 | 0.00 | 51 | 1010.6 |
| 20260504211514 | 69 | 222 | 4.0 | 15.0 | 0.00 | 0.00 | 0.00 | 52 | 1010.7 |
| 20260504211012 | 69 | 222 | 6.0 | 12.0 | 0.00 | 0.00 | 0.00 | 51 | 1010.8 |
| 20260504210511 | 69 | 217 | 6.0 | 10.0 | 0.00 | 0.00 | 0.00 | 53 | 1010.8 |
| 20260504210010 | 69 | 186 | 5.0 | 11.0 | 0.00 | 0.00 | 0.00 | 54 | 1010.9 |
| 20260504205510 | 70 | 169 | 6.0 | 11.0 | 0.00 | 0.00 | 0.00 | 54 | 1010.9 |
| 20260504205012 | 70 | 242 | 3.0 | 9.0 | 0.00 | 0.00 | 0.00 | 53 | 1010.9 |
| 20260504204509 | 69 | 209 | 3.0 | 12.0 | 0.00 | 0.00 | 0.00 | 53 | 1011.0 |
| 20260504204008 | 69 | 190 | 7.0 | 14.0 | 0.00 | 0.00 | 0.00 | 53 | 1011.0 |
| 20260504203508 | 69 | 219 | 5.0 | 13.0 | 0.00 | 0.00 | 0.00 | 55 | 1011.1 |
| 20260504203018 | 69 | 190 | 8.0 | 13.0 | 0.00 | 0.00 | 0.00 | 51 | 1011.1 |
| 20260504202508 | 70 | 242 | 8.0 | 15.0 | 0.00 | 0.00 | 0.00 | 49 | 1011.1 |
| 20260504202006 | 70 | 212 | 5.0 | 11.0 | 0.00 | 0.00 | 0.00 | 51 | 1011.1 |
| 20260504201505 | 70 | 240 | 6.0 | 11.0 | 0.00 | 0.00 | 0.00 | 45 | 1011.2 |
| 20260504201006 | 70 | 206 | 5.0 | 12.0 | 0.00 | 0.00 | 0.00 | 47 | 1011.2 |
| 20260504200506 | 69 | 208 | 7.0 | 12.0 | 0.00 | 0.00 | 0.00 | 47 | 1011.3 |
| 20260504200004 | 70 | 164 | 5.0 | 12.0 | 0.00 | 0.00 | 0.00 | 47 | 1011.3 |
| 20260504195502 | 70 | 246 | 4.0 | 12.0 | 0.00 | 0.00 | 0.00 | 49 | 1011.3 |
| 20260504195002 | 70 | 216 | 4.0 | 14.0 | 0.00 | 0.00 | 0.00 | 52 | 1011.4 |
| 20260504194502 | 70 | 198 | 5.0 | 14.0 | 0.00 | 0.00 | 0.00 | 50 | 1011.5 |
| 20260504194002 | 70 | 264 | 4.0 | 12.0 | 0.00 | 0.00 | 0.00 | 51 | 1011.6 |
| 20260504193559 | 69 | 227 | 6.0 | 12.0 | 0.00 | 0.00 | 0.00 | 48 | 1011.6 |
| 20260504193501 | 69 | 215 | 4.0 | 12.0 | 0.00 | 0.00 | 0.00 | 51 | 1011.7 |
| 20260504193100 | 69 | 231 | 6.0 | 11.0 | 0.00 | 0.00 | 0.00 | 51 | 1011.8 |
| 20260504192600 | 69 | 217 | 7.0 | 14.0 | 0.00 | 0.00 | 0.00 | 52 | 1011.8 |
| 20260504192059 | 69 | 237 | 8.0 | 14.0 | 0.00 | 0.00 | 0.00 | 49 | 1011.8 |
| 20260504192001 | 70 | 227 | 7.0 | 14.0 | 0.00 | 0.00 | 0.00 | 50 | 1011.8 |
| 20260504191559 | 70 | 224 | 4.0 | 11.0 | 0.00 | 0.00 | 0.00 | 53 | 1011.8 |
| 20260504191058 | 70 | 198 | 6.0 | 11.0 | 0.00 | 0.00 | 0.00 | 51 | 1011.8 |
| 20260504190557 | 70 | 183 | 5.0 | 11.0 | 0.00 | 0.00 | 0.00 | 51 | 1011.8 |
| 20260504190125 | 70 | 242 | 5.0 | 11.0 | 0.00 | 0.00 | 0.00 | 51 | 1011.9 |
| 20260504185558 | 71 | 223 | 6.0 | 11.0 | 0.00 | 0.00 | 0.00 | 48 | 1012.0 |
| 20260504185055 | 71 | 226 | 6.0 | 11.0 | 0.00 | 0.00 | 0.00 | 48 | 1012.0 |
| 20260504184558 | 71 | 220 | 3.0 | 10.0 | 0.00 | 0.00 | 0.00 | 38 | 1012.1 |
| 20260504184054 | 70 | 232 | 4.0 | 10.0 | 0.00 | 0.00 | 0.00 | 36 | 1012.2 |
| 20260504183553 | 70 | 272 | 4.0 | 12.0 | 0.00 | 0.00 | 0.00 | 36 | 1012.2 |
| 20260504183051 | 70 | 242 | 6.0 | 11.0 | 0.00 | 0.00 | 0.00 | 36 | 1012.3 |
| 20260504182549 | 70 | 231 | 5.0 | 11.0 | 0.00 | 0.00 | 0.00 | 36 | 1012.4 |
| 20260504182048 | 70 | 205 | 7.0 | 10.0 | 0.00 | 0.00 | 0.00 | 36 | 1012.5 |
| 20260504181553 | 69 | 216 | 4.0 | 11.0 | 0.00 | 0.00 | 0.00 | 38 | 1012.5 |
| 20260504181047 | 69 | 236 | 4.0 | 10.0 | 0.00 | 0.00 | 0.00 | 37 | 1012.6 |
| 20260504180548 | 69 | 215 | 4.0 | 9.0 | 0.00 | 0.00 | 0.00 | 37 | 1012.6 |
| 20260504180120 | 69 | 230 | 6.0 | 9.0 | 0.00 | 0.00 | 0.00 | 39 | 1012.7 |
| 20260504175544 | 69 | 228 | 4.0 | 10.0 | 0.00 | 0.00 | 0.00 | 40 | 1012.7 |
| 20260504175046 | 69 | 225 | 5.0 | 10.0 | 0.00 | 0.00 | 0.00 | 39 | 1012.7 |
| 20260504174545 | 69 | 283 | 4.0 | 10.0 | 0.00 | 0.00 | 0.00 | 40 | 1012.8 |
| 20260504174045 | 69 | 238 | 4.0 | 11.0 | 0.00 | 0.00 | 0.00 | 39 | 1012.8 |
| 20260504173540 | 69 | 223 | 4.0 | 10.0 | 0.00 | 0.00 | 0.00 | 40 | 1012.9 |
| 20260504173048 | 68 | 249 | 4.0 | 11.0 | 0.00 | 0.00 | 0.00 | 40 | 1013.0 |
| 20260504172539 | 68 | 225 | 6.0 | 13.0 | 0.00 | 0.00 | 0.00 | 42 | 1013.0 |
| 20260504172037 | 68 | 213 | 6.0 | 12.0 | 0.00 | 0.00 | 0.00 | 43 | 1013.1 |
| 20260504171537 | 68 | 240 | 7.0 | 12.0 | 0.00 | 0.00 | 0.00 | 43 | 1013.2 |
| 20260504171036 | 68 | 238 | 5.0 | 11.0 | 0.00 | 0.00 | 0.00 | 42 | 1013.3 |
| 20260504170537 | 68 | 262 | 5.0 | 14.0 | 0.00 | 0.00 | 0.00 | 46 | 1013.4 |
| 20260504151015 | 63 | 247 | 8.0 | 17.0 | 0.00 | 0.00 | 0.00 | 56 | 1014.4 |
| 20260504150515 | 63 | 234 | 9.0 | 15.0 | 0.00 | 0.00 | 0.00 | 57 | 1014.4 |
| 20260504141009 | 61 | 202 | 9.0 | 18.0 | 0.00 | 0.00 | 0.00 | 61 | 1014.5 |
| 20260504140505 | 60 | 246 | 8.0 | 17.0 | 0.00 | 0.00 | 0.00 | 62 | 1014.6 |
| 20260504130559 | 60 | 215 | 9.0 | 21.0 | 0.00 | 0.00 | 0.00 | 58 | 1014.9 |
| 20260504120107 | 56 | 226 | 5.0 | 14.0 | 0.00 | 0.00 | 0.00 | 66 | 1015.4 |
| 20260504110530 | 53 | 209 | 4.0 | 8.0 | 0.00 | 0.00 | 0.00 | 73 | 1015.7 |
| 20260504100526 | 52 | 249 | 5.0 | 12.0 | 0.00 | 0.00 | 0.00 | 77 | 1015.7 |
| 20260504081520 | 51 | 222 | 6.0 | 14.0 | 0.00 | 0.00 | 0.00 | 73 | 1015.7 |
| 20260504081022 | 51 | 222 | 5.0 | 10.0 | 0.00 | 0.00 | 0.00 | 73 | 1015.7 |
| 20260504080519 | 51 | 236 | 5.0 | 10.0 | 0.00 | 0.00 | 0.00 | 73 | 1015.7 |
| 20260504050556 | 54 | 236 | 4.0 | 9.0 | 0.00 | 0.00 | 0.00 | 67 | 1015.3 |
| 20260504050131 | 54 | 230 | 5.0 | 10.0 | 0.00 | 0.00 | 0.00 | 66 | 1015.3 |
| 20260504045554 | 54 | 221 | 5.0 | 10.0 | 0.00 | 0.00 | 0.00 | 67 | 1015.4 |
| 20260504045053 | 53 | 233 | 5.0 | 10.0 | 0.00 | 0.00 | 0.00 | 67 | 1015.3 |
| 20260504044555 | 53 | 221 | 4.0 | 9.0 | 0.00 | 0.00 | 0.00 | 67 | 1015.3 |
| 20260504044052 | 53 | 217 | 4.0 | 8.0 | 0.00 | 0.00 | 0.00 | 67 | 1015.2 |
| 20260504043552 | 53 | 219 | 3.0 | 7.0 | 0.00 | 0.00 | 0.00 | 67 | 1015.2 |
| 20260504043058 | 53 | 253 | 3.0 | 8.0 | 0.00 | 0.00 | 0.00 | 68 | 1015.2 |
| 20260504042551 | 54 | 233 | 4.0 | 7.0 | 0.00 | 0.00 | 0.00 | 67 | 1015.1 |
| 20260504042052 | 54 | 211 | 4.0 | 7.0 | 0.00 | 0.00 | 0.00 | 67 | 1015.1 |
| 20260504041548 | 53 | 236 | 3.0 | 9.0 | 0.00 | 0.00 | 0.00 | 67 | 1015.1 |
| 20260504041047 | 53 | 232 | 3.0 | 8.0 | 0.00 | 0.00 | 0.00 | 68 | 1015.1 |
| 20260504040546 | 53 | 243 | 3.0 | 8.0 | 0.00 | 0.00 | 0.00 | 68 | 1015.0 |
| 20260504040044 | 53 | 218 | 3.0 | 7.0 | 0.00 | 0.00 | 0.00 | 68 | 1015.0 |
| 20260504035544 | 52 | 203 | 4.0 | 7.0 | 0.00 | 0.00 | 0.00 | 67 | 1015.0 |
| 20260504035044 | 52 | 217 | 2.0 | 7.0 | 0.00 | 0.00 | 0.00 | 67 | 1015.0 |
| 20260504034549 | 52 | 221 | 3.0 | 7.0 | 0.00 | 0.00 | 0.00 | 69 | 1015.0 |
| 20260504034042 | 52 | 217 | 2.0 | 5.0 | 0.00 | 0.00 | 0.00 | 69 | 1014.9 |
| 20260504033542 | 52 | 234 | 2.0 | 7.0 | 0.00 | 0.00 | 0.00 | 67 | 1014.8 |
| 20260504033045 | 53 | 214 | 3.0 | 6.0 | 0.00 | 0.00 | 0.00 | 65 | 1014.8 |
| 20260504032543 | 53 | 215 | 2.0 | 6.0 | 0.00 | 0.00 | 0.00 | 66 | 1014.8 |
| 20260504032041 | 53 | 236 | 2.0 | 6.0 | 0.00 | 0.00 | 0.00 | 66 | 1014.8 |
| 20260504031601 | 53 | 224 | 2.0 | 8.0 | 0.00 | 0.00 | 0.00 | 68 | 1014.8 |
| 20260504031041 | 53 | 213 | 3.0 | 8.0 | 0.00 | 0.00 | 0.00 | 68 | 1014.8 |
| 20260504030541 | 51 | 236 | 3.0 | 7.0 | 0.00 | 0.00 | 0.00 | 72 | 1014.8 |
| 20260504030041 | 51 | 252 | 0.0 | 4.0 | 0.00 | 0.00 | 0.00 | 72 | 1014.7 |
| 20260504025539 | 51 | 229 | 1.0 | 4.0 | 0.00 | 0.00 | 0.00 | 73 | 1014.7 |
| 20260504025039 | 51 | 281 | 0.0 | 4.0 | 0.00 | 0.00 | 0.00 | 73 | 1014.7 |
| 20260504024542 | 51 | 235 | 1.0 | 4.0 | 0.00 | 0.00 | 0.00 | 72 | 1014.7 |
| 20260504024039 | 51 | 239 | 0.0 | 2.0 | 0.00 | 0.00 | 0.00 | 71 | 1014.7 |
| 20260504023539 | 52 | 225 | 1.0 | 3.0 | 0.00 | 0.00 | 0.00 | 71 | 1014.7 |
| 20260504023039 | 52 | 245 | 0.0 | 4.0 | 0.00 | 0.00 | 0.00 | 69 | 1014.7 |
| 20260504022542 | 52 | 264 | 1.0 | 4.0 | 0.00 | 0.00 | 0.00 | 68 | 1014.7 |